Wind_Speed
23 22 22 23 24 25 25 25 24 24 24 23 23 22 21 21 20 20 21 22 23 23 24 25 25 25 25 25 26 25 24 25 24 25 25 25 25 25 25 25 25 25 25 25
24 23 23 23 24 25 25 25 25 25 25 24 23 23 22 22 22 23 23 24 25 25 25 26 26 26 26 26 26 26 26 26 26 26 26 27 27 27 27 26 26 26 26 26
25 25 25 25 24 24 24 25 25 25 25 23 23 23 23 23 24 25 25 25 26 26 27 27 27 26 26 27 27 27 28 27 27 27 28 28 29 29 28 28 28 27 27 27
26 27 27 26 25 25 25 25 25 25 25 25 24 24 24 24 24 25 26 26 26 26 26 26 27 28 29 28 28 28 28 28 28 28 29 29 29 29 30 29 28 28 27 26
28 28 27 27 26 25 25 25 26 26 26 26 26 25 24 24 25 26 27 27 27 27 27 28 28 28 29 29 29 29 30 30 30 30 30 30 30 30 30 30 28 28 28 27
30 29 28 27 27 26 26 27 26 26 27 27 27 27 27 26 26 27 28 27 27 28 29 29 29 29 28 29 30 30 30 30 30 31 31 31 31 31 31 30 30 29 28 29
32 31 30 30 28 27 28 28 27 27 28 28 28 28 27 27 28 28 29 28 28 28 29 28 28 28 29 30 31 32 32 32 32 32 31 31 31 31 31 31 31 31 31 31
34 33 32 31 30 30 30 29 29 29 29 29 28 29 28 27 27 28 28 28 28 28 28 28 28 29 29 30 31 32 32 33 32 32 32 32 31 31 32 32 32 32 32 33
34 34 34 33 33 32 32 31 30 30 30 29 29 30 29 28 28 28 28 29 29 29 29 29 29 30 30 30 31 31 33 33 34 34 34 34 34 34 34 34 33 33 33 34
33 34 34 33 32 32 32 32 30 30 29 29 29 29 30 29 29 29 29 29 30 29 29 29 30 30 31 31 31 31 33 34 35 35 36 35 35 35 35 35 34 35 35 34
32 33 33 33 32 32 31 31 30 30 30 30 30 30 31 31 30 30 30 31 31 32 31 31 31 32 32 32 32 32 33 34 34 34 35 35 36 36 35 35 35 34 35 35
31 32 33 33 32 32 31 31 32 31 30 30 30 30 30 31 30 30 30 31 31 32 32 33 33 32 32 32 32 33 33 34 34 34 34 34 35 35 34 34 34 34 33 33
30 30 31 31 31 31 31 31 31 30 30 29 29 29 30 30 30 30 30 30 30 31 32 32 33 33 32 32 32 33 34 33 34 35 35 35 35 34 33 34 34 33 33 32
30 29 29 29 30 30 30 30 29 30 29 29 29 30 30 30 30 30 30 30 30 31 31 31 31 30 30 31 32 32 33 33 33 33 34 34 34 33 33 33 33 33 33 33
28 28 29 29 29 30 29 29 28 28 29 29 29 29 30 30 30 31 31 31 31 31 31 31 31 30 31 32 33 33 33 33 33 33 34 34 34 34 34 33 33 32 32 32
27 27 28 28 29 29 30 29 29 29 29 29 29 29 29 30 30 31 31 31 32 31 31 32 32 31 32 33 34 34 34 34 35 35 35 35 35 34 34 33 33 33 32 32
27 27 28 28 28 29 30 30 30 30 30 30 30 29 30 30 30 30 31 31 32 32 32 33 33 33 34 34 35 35 35 34 35 35 35 35 35 34 33 32 32 31 31 31
27 27 27 28 29 29 29 30 30 30 30 30 30 30 30 30 30 30 31 31 31 31 32 33 33 33 34 34 35 35 35 35 35 35 34 34 34 33 33 32 32 31 31 30
26 26 26 27 28 28 29 29 29 29 30 30 31 31 31 31 30 30 31 31 31 32 32 33 33 33 34 34 35 35 35 35 35 34 34 33 33 32 32 32 31 31 30 30
25 26 25 26 26 27 28 29 28 28 29 29 29 29 29 30 30 30 31 31 32 32 32 33 34 34 34 34 34 34 35 34 34 34 34 33 32 32 32 32 32 31 31 31
23 24 24 24 25 26 26 27 28 28 28 28 28 29 29 30 30 31 31 31 31 32 33 33 34 34 34 34 34 35 35 35 35 34 34 33 33 32 32 32 32 32 32 31
22 22 23 24 24 24 25 26 26 27 27 28 28 29 30 30 29 29 30 31 31 32 33 33 34 35 35 35 35 35 35 35 35 35 35 34 34 34 34 33 32 32 32 32
21 22 23 23 24 24 25 26 26 26 27 27 28 29 29 29 29 30 31 31 32 32 33 33 33 34 34 35 35 35 35 35 35 35 35 35 35 35 35 34 33 32 32 31
21 21 22 23 24 24 25 25 26 26 26 27 28 28 28 28 29 30 30 31 31 31 32 33 33 34 34 35 35 35 35 35 35 35 35 35 34 34 34 33 33 32 32 32
19 20 21 22 22 23 24 25 25 25 25 26 27 27 28 28 29 29 29 30 30 31 32 32 33 33 34 34 34 34 34 34 34 34 33 33 33 32 32 32 32 32 31 31
18 19 19 20 21 22 22 23 24 25 26 27 27 28 28 28 28 29 29 30 30 31 32 32 32 32 33 33 32 33 33 34 34 33 33 32 32 32 32 31 31 30 31 30
17 18 19 20 21 21 21 22 23 24 24 25 25 25 26 26 26 27 28 29 30 30 31 31 32 32 32 31 31 32 32 33 32 31 31 31 30 30 30 30 31 31 31 30
Wind_Direction
236 239 243 245 245 245 245 247 249 253 257 261 262 262 261 260 262 264 265 265 268 270 271 273 273 273 276 275 276 277 277 278 277 280 281 283 286 287 288 289 291 292 291 292
242 243 245 247 246 247 248 251 253 254 255 260 261 261 261 261 262 265 265 266 267 270 272 273 273 273 275 276 277 279 280 281 280 281 281 283 284 285 286 288 291 292 292 294
244 246 247 248 247 248 252 253 253 255 255 258 258 261 262 261 262 264 264 267 269 271 272 272 272 273 275 276 276 278 281 283 284 285 284 284 285 284 284 287 289 291 291 291
243 245 247 248 249 249 252 254 253 255 255 257 258 261 262 262 263 262 263 265 267 270 271 272 273 274 275 274 276 278 280 282 285 287 286 285 285 286 285 286 286 288 289 289
243 246 251 250 249 249 252 255 256 257 258 258 259 261 263 263 263 264 264 266 267 269 271 272 273 274 274 275 275 277 279 282 284 286 287 287 286 286 287 286 286 286 287 287
246 247 249 252 252 252 255 257 256 257 258 258 259 262 265 267 267 267 267 267 267 269 271 271 273 274 275 276 276 277 279 281 283 285 286 286 285 284 284 284 283 283 285 287
245 248 250 251 251 252 254 257 258 259 261 260 260 262 265 268 269 268 269 268 267 269 271 270 271 273 275 275 276 276 278 279 281 284 284 285 284 282 283 284 283 282 283 284
245 247 248 250 251 252 255 258 260 262 263 264 263 262 264 266 268 268 269 269 269 270 270 270 272 274 275 276 277 277 277 278 280 281 282 283 282 282 282 282 282 282 282 282
244 246 249 252 253 254 255 258 260 262 263 263 263 262 263 264 268 269 269 269 270 270 271 273 275 277 277 278 279 280 279 279 280 279 280 281 282 282 281 281 281 281 282 283
246 247 249 252 253 254 255 257 259 260 261 261 262 262 263 264 266 268 268 268 270 270 272 274 276 278 279 280 281 282 281 280 280 280 280 280 281 281 280 280 280 282 284 285
246 247 249 251 253 255 255 255 255 257 259 260 262 263 264 264 265 265 266 267 270 271 272 274 276 278 280 282 283 284 282 280 280 281 281 281 280 280 280 280 280 281 282 283
246 247 249 250 253 255 254 253 253 255 256 258 260 262 263 263 264 265 266 268 270 271 274 275 278 278 278 280 283 283 284 283 280 280 281 281 280 281 281 282 281 281 281 282
247 248 250 251 252 253 254 254 255 256 258 257 260 263 263 263 265 267 268 269 270 273 274 278 280 280 280 281 282 282 283 283 282 280 281 281 281 282 282 282 281 281 281 282
248 249 250 251 252 253 255 256 257 258 259 260 260 262 263 265 267 268 270 272 273 274 276 277 279 279 280 281 282 283 284 285 284 283 283 283 283 283 282 282 281 280 280 281
248 249 250 251 252 253 254 255 257 259 260 261 263 264 263 264 266 268 270 272 274 276 276 277 278 279 280 281 281 281 283 283 284 284 284 284 284 283 282 281 281 281 281 280
249 250 252 252 253 253 253 254 256 258 260 262 264 265 266 266 267 268 270 271 273 276 277 277 277 279 280 281 282 282 283 283 283 282 283 283 283 283 284 283 282 281 280 280
249 250 252 252 253 254 254 256 257 259 260 261 264 266 268 270 271 271 272 274 275 276 277 278 278 280 282 282 282 283 283 283 283 283 282 281 281 282 282 283 282 281 279 279
250 251 253 254 254 253 254 256 256 258 259 261 264 267 269 271 272 274 276 278 278 278 279 280 281 283 283 283 283 283 283 283 283 283 282 280 279 280 281 281 281 281 280 279
253 253 254 255 256 255 255 255 257 259 261 263 266 268 269 271 273 274 276 277 278 279 281 282 283 283 284 284 284 284 284 284 284 284 282 282 282 281 280 279 279 280 279 279
254 254 255 257 257 255 254 254 257 260 262 265 267 269 270 271 273 274 275 277 279 280 281 282 283 284 285 286 286 286 286 285 285 284 282 282 282 282 280 278 278 278 278 279
256 256 255 256 257 256 255 256 256 259 261 263 266 269 271 273 274 275 277 279 281 282 283 284 285 286 286 286 286 286 286 285 284 283 282 282 282 281 280 278 277 277 276 277
255 256 256 256 257 257 257 258 260 261 263 265 268 271 274 275 276 276 278 280 282 283 284 286 287 287 286 286 286 287 286 286 285 284 282 281 280 280 279 278 277 276 276 275
254 255 257 257 258 259 259 260 263 265 268 270 272 274 275 277 278 279 279 281 283 284 285 286 287 288 287 288 288 288 287 287 286 285 282 280 279 279 277 276 276 275 274 273
256 257 258 260 261 263 264 265 267 268 270 273 274 275 276 277 280 282 282 283 284 284 286 287 288 288 288 289 289 288 287 287 287 286 283 281 279 279 278 276 275 274 272 271
260 261 262 263 265 266 268 269 269 270 272 274 276 277 278 280 281 283 283 285 286 287 288 289 289 289 290 289 289 289 288 287 287 286 284 282 280 279 278 277 276 274 272 272
264 263 263 266 267 268 269 271 272 273 274 276 277 279 280 281 283 284 285 286 287 289 290 290 290 291 290 290 290 290 289 288 287 287 286 283 282 280 278 277 276 274 274 273
270 271 271 271 271 271 272 273 274 276 277 278 279 280 281 282 284 285 286 288 289 291 291 291 291 292 291 291 291 291 291 290 289 287 285 283 281 280 278 276 274 274 275 274
Height
5862 5864 5866 5867 5869 5870 5872 5874 5876 5878 5878 5878 5877 5878 5879 5879 5880 5880 5880 5880 5880 5879 5878 5878 5877 5876 5875 5874 5873 5872 5871 5870 5869 5868 5866 5865 5863 5862 5860 5858 5856 5853 5851 5848
5855 5857 5859 5860 5862 5864 5865 5867 5868 5869 5870 5871 5871 5871 5872 5872 5873 5873 5874 5873 5873 5873 5872 5871 5870 5869 5868 5867 5866 5865 5865 5864 5862 5861 5860 5858 5857 5855 5853 5851 5849 5847 5845 5842
5850 5851 5852 5854 5856 5857 5859 5860 5861 5862 5864 5864 5864 5864 5865 5865 5866 5866 5866 5866 5866 5866 5865 5864 5863 5862 5861 5860 5859 5859 5858 5857 5855 5854 5852 5851 5849 5848 5846 5844 5842 5839 5837 5835
5843 5844 5845 5850 5849 5850 5852 5853 5854 5854 5856 5857 5857 5858 5858 5858 5858 5858 5858 5858 5858 5858 5857 5856 5855 5854 5853 5853 5852 5851 5850 5849 5848 5846 5845 5843 5841 5840 5838 5836 5834 5832 5830 5828
5835 5837 5838 5840 5841 5843 5844 5845 5846 5847 5848 5849 5849 5850 5850 5851 5851 5851 5851 5850 5850 5850 5849 5848 5847 5846 5845 5844 5844 5843 5842 5841 5840 5839 5837 5835 5833 5832 5830 5828 5826 5824 5822 5820
5827 5829 5832 5834 5834 5835 5838 5838 5839 5840 5841 5841 5841 5842 5843 5843 5843 5843 5843 5842 5842 5842 5841 5840 5839 5838 5837 5836 5835 5835 5834 5833 5832 5830 5828 5827 5825 5823 5821 5819 5818 5816 5815 5813
5818 5820 5823 5824 5826 5828 5831 5831 5831 5832 5833 5833 5834 5835 5835 5835 5835 5835 5835 5834 5834 5833 5833 5832 5831 5830 5828 5828 5827 5826 5825 5824 5823 5821 5819 5818 5815 5814 5812 5811 5809 5807 5806 5804
5810 5813 5816 5815 5817 5820 5821 5822 5823 5824 5825 5825 5826 5826 5827 5827 5827 5827 5826 5826 5826 5825 5824 5823 5822 5821 5820 5819 5818 5817 5816 5815 5813 5812 5810 5808 5806 5805 5803 5802 5800 5798 5797 5795
5802 5805 5805 5807 5808 5810 5812 5814 5814 5815 5816 5817 5817 5818 5818 5818 5818 5818 5818 5818 5818 5817 5816 5815 5814 5813 5812 5810 5809 5808 5807 5805 5804 5802 5801 5799 5797 5795 5794 5792 5791 5789 5787 5785
5791 5793 5795 5797 5799 5801 5803 5805 5806 5807 5808 5808 5809 5809 5809 5809 5809 5809 5809 5809 5809 5808 5807 5806 5805 5804 5802 5801 5799 5798 5797 5795 5794 5793 5791 5789 5788 5786 5784 5782 5781 5779 5778 5776
5782 5784 5787 5789 5791 5793 5794 5796 5797 5798 5799 5799 5800 5800 5800 5801 5801 5801 5801 5801 5800 5799 5798 5797 5796 5795 5793 5791 5790 5789 5787 5786 5784 5782 5780 5779 5777 5776 5774 5773 5771 5769 5768 5765
5774 5776 5778 5780 5782 5784 5785 5786 5787 5788 5789 5790 5791 5791 5791 5792 5792 5791 5791 5791 5791 5790 5789 5788 5787 5785 5784 5782 5781 5779 5777 5775 5774 5772 5770 5769 5767 5765 5763 5762 5761 5759 5757 5756
5765 5767 5769 5771 5773 5774 5776 5777 5779 5780 5780 5781 5782 5782 5782 5783 5783 5783 5782 5782 5782 5781 5780 5779 5777 5776 5774 5772 5771 5769 5767 5765 5763 5762 5760 5759 5757 5755 5754 5752 5750 5749 5747 5746
5757 5759 5761 5763 5764 5766 5767 5768 5769 5771 5771 5772 5773 5773 5773 5774 5774 5774 5774 5773 5772 5772 5771 5770 5768 5766 5765 5763 5762 5760 5758 5756 5753 5752 5750 5749 5747 5745 5744 5742 5740 5738 5737 5735
5749 5751 5753 5754 5756 5757 5758 5760 5761 5762 5763 5763 5764 5764 5765 5765 5765 5765 5764 5764 5763 5762 5761 5760 5759 5757 5755 5754 5752 5750 5749 5747 5744 5742 5740 5739 5737 5735 5733 5731 5730 5728 5727 5725
5740 5742 5744 5746 5747 5748 5750 5751 5752 5753 5754 5755 5755 5755 5756 5756 5755 5755 5755 5754 5754 5753 5752 5751 5749 5747 5745 5744 5742 5740 5738 5737 5734 5732 5730 5728 5726 5725 5723 5721 5720 5718 5717 5715
5732 5734 5735 5737 5738 5739 5741 5742 5743 5744 5745 5746 5746 5746 5746 5746 5746 5746 5746 5745 5744 5743 5742 5741 5739 5738 5736 5734 5732 5730 5728 5726 5724 5722 5720 5718 5716 5714 5712 5711 5709 5708 5706 5705
5724 5726 5727 5728 5729 5731 5732 5733 5734 5735 5736 5737 5737 5738 5737 5737 5737 5737 5736 5735 5734 5733 5732 5731 5729 5727 5726 5724 5722 5719 5717 5715 5713 5711 5709 5707 5705 5703 5702 5700 5699 5697 5696 5694
5716 5718 5719 5720 5720 5721 5723 5724 5725 5726 5727 5728 5728 5729 5729 5728 5728 5727 5727 5726 5725 5724 5722 5721 5719 5717 5715 5713 5711 5708 5706 5704 5702 5700 5698 5696 5694 5693 5691 5690 5688 5687 5685 5684
5708 5709 5711 5712 5713 5714 5714 5715 5717 5718 5718 5719 5719 5719 5719 5719 5718 5718 5717 5716 5715 5713 5712 5710 5708 5706 5704 5702 5699 5697 5695 5693 5691 5689 5687 5685 5683 5682 5680 5679 5678 5676 5675 5674
5701 5702 5703 5704 5705 5705 5706 5707 5708 5709 5710 5710 5711 5710 5710 5710 5709 5708 5707 5706 5705 5703 5701 5699 5697 5695 5693 5691 5688 5686 5684 5682 5680 5678 5676 5674 5672 5670 5669 5668 5666 5665 5664 5663
5693 5694 5695 5696 5697 5698 5698 5699 5700 5701 5701 5701 5702 5701 5701 5700 5699 5698 5697 5696 5694 5692 5691 5689 5687 5684 5682 5679 5677 5674 5672 5670 5668 5666 5664 5662 5660 5659 5657 5656 5655 5654 5653 5652
5686 5687 5688 5689 5690 5690 5691 5691 5692 5692 5693 5693 5692 5692 5691 5690 5689 5688 5687 5686 5684 5682 5680 5678 5676 5673 5670 5668 5665 5663 5660 5658 5655 5653 5651 5649 5648 5646 5645 5643 5642 5641 5641 5640
5680 5680 5681 5682 5682 5683 5683 5683 5684 5684 5684 5683 5683 5682 5681 5680 5679 5678 5677 5675 5673 5671 5669 5667 5665 5662 5659 5656 5654 5651 5648 5646 5643 5641 5638 5636 5635 5633 5632 5631 5630 5629 5629 5629
5673 5674 5674 5675 5675 5675 5676 5675 5675 5675 5675 5674 5673 5673 5672 5671 5670 5668 5667 5665 5663 5661 5658 5656 5653 5650 5647 5645 5642 5639 5636 5633 5630 5628 5625 5624 5622 5621 5619 5618 5618 5617 5617 5617
5667 5667 5668 5668 5668 5668 5668 5667 5667 5667 5666 5665 5664 5663 5662 5661 5660 5658 5656 5655 5652 5650 5648 5645 5642 5639 5636 5633 5630 5627 5624 5621 5618 5615 5613 5611 5610 5609 5607 5606 5605 5605 5605 5605
5661 5661 5661 5661 5661 5661 5660 5660 5659 5659 5658 5657 5655 5654 5653 5652 5650 5648 5646 5644 5642 5639 5637 5634 5631 5628 5625 5622 5619 5616 5612 5609 5606 5603 5601 5599 5598 5597 5595 5595 5594 5594 5593 5593